QPF
0.00 0.00 0.00 0.00 0.01 0.02 0.06 0.15 0.23 0.16 0.06 0.02 0.01 0.00 0.01 0.01 0.01 0.01 0.00 0.00 0.00 0.00 0.00 0.00 0.00 0.00 0.00 0.00 0.00 0.00 0.00 0.00 0.00 0.00 0.00 0.00 0.00 0.01 0.01 0.00 0.00 0.00 0.00
0.00 0.00 0.00 0.00 0.01 0.01 0.01 0.02 0.05 0.13 0.21 0.13 0.03 0.01 0.01 0.00 0.00 0.00 0.00 0.00 0.00 0.00 0.00 0.00 0.00 0.00 0.00 0.00 0.00 0.00 0.00 0.00 0.00 0.00 0.00 0.00 0.01 0.02 0.02 0.02 0.00 0.00 0.00
0.00 0.00 0.00 0.00 0.00 0.01 0.01 0.01 0.01 0.02 0.05 0.12 0.18 0.11 0.05 0.05 0.02 0.01 0.00 0.00 0.00 0.00 0.00 0.00 0.00 0.00 0.00 0.00 0.00 0.00 0.01 0.00 0.00 0.00 0.00 0.00 0.01 0.01 0.01 0.00 0.00 0.00 0.00
0.00 0.00 0.00 0.00 0.00 0.00 0.00 0.00 0.00 0.00 0.01 0.02 0.05 0.08 0.08 0.09 0.11 0.07 0.04 0.02 0.00 0.00 0.00 0.00 0.01 0.00 0.01 0.02 0.01 0.01 0.02 0.01 0.01 0.01 0.01 0.00 0.00 0.00 0.00 0.00 0.00 0.00 0.00
0.00 0.00 0.00 0.00 0.00 0.00 0.00 0.00 0.00 0.00 0.00 0.00 0.00 0.01 0.02 0.04 0.12 0.12 0.11 0.10 0.06 0.02 0.00 0.00 0.01 0.01 0.01 0.01 0.01 0.01 0.01 0.02 0.04 0.05 0.02 0.02 0.01 0.01 0.00 0.00 0.00 0.00 0.00
0.00 0.00 0.00 0.00 0.00 0.00 0.00 0.00 0.00 0.00 0.00 0.00 0.00 0.00 0.01 0.01 0.01 0.03 0.05 0.06 0.07 0.05 0.03 0.02 0.01 0.01 0.01 0.02 0.02 0.03 0.03 0.04 0.05 0.04 0.03 0.01 0.01 0.00 0.00 0.00 0.00 0.00 0.00
0.00 0.00 0.00 0.00 0.00 0.00 0.00 0.00 0.00 0.00 0.00 0.00 0.00 0.00 0.00 0.00 0.01 0.02 0.05 0.06 0.05 0.03 0.03 0.03 0.03 0.03 0.03 0.03 0.04 0.04 0.03 0.03 0.04 0.03 0.02 0.01 0.01 0.00 0.00 0.00 0.00 0.00 0.00
0.00 0.00 0.00 0.00 0.00 0.00 0.00 0.00 0.00 0.00 0.00 0.00 0.00 0.00 0.00 0.00 0.00 0.01 0.03 0.04 0.03 0.02 0.04 0.06 0.05 0.06 0.08 0.08 0.09 0.07 0.04 0.02 0.02 0.02 0.01 0.00 0.00 0.01 0.00 0.00 0.00 0.00 0.00
0.00 0.00 0.00 0.00 0.00 0.00 0.00 0.00 0.00 0.00 0.00 0.00 0.00 0.00 0.00 0.00 0.00 0.00 0.00 0.01 0.01 0.01 0.01 0.01 0.02 0.01 0.01 0.04 0.06 0.04 0.01 0.01 0.01 0.00 0.00 0.00 0.00 0.00 0.00 0.00 0.00 0.00 0.00
0.00 0.00 0.00 0.00 0.00 0.00 0.00 0.00 0.00 0.00 0.00 0.00 0.00 0.00 0.00 0.00 0.00 0.00 0.00 0.00 0.00 0.00 0.01 0.01 0.01 0.01 0.01 0.01 0.01 0.01 0.00 0.00 0.00 0.00 0.00 0.00 0.00 0.00 0.00 0.00 0.00 0.00 0.00
0.00 0.00 0.00 0.00 0.00 0.00 0.00 0.00 0.00 0.00 0.00 0.00 0.00 0.00 0.00 0.00 0.00 0.00 0.00 0.00 0.00 0.00 0.00 0.00 0.00 0.00 0.00 0.00 0.00 0.00 0.00 0.00 0.00 0.00 0.00 0.00 0.00 0.00 0.00 0.00 0.00 0.00 0.00
0.00 0.00 0.00 0.00 0.00 0.00 0.00 0.00 0.00 0.00 0.00 0.00 0.00 0.00 0.00 0.00 0.00 0.00 0.00 0.00 0.00 0.00 0.00 0.00 0.00 0.00 0.00 0.00 0.00 0.00 0.00 0.00 0.00 0.00 0.00 0.00 0.00 0.00 0.00 0.00 0.00 0.00 0.00
0.00 0.00 0.00 0.00 0.00 0.00 0.00 0.00 0.00 0.00 0.00 0.00 0.00 0.00 0.00 0.00 0.00 0.00 0.00 0.00 0.00 0.00 0.00 0.00 0.00 0.00 0.00 0.00 0.00 0.00 0.00 0.00 0.00 0.00 0.00 0.00 0.00 0.00 0.00 0.00 0.00 0.00 0.00
0.00 0.00 0.00 0.00 0.00 0.00 0.00 0.00 0.00 0.00 0.00 0.00 0.00 0.00 0.00 0.00 0.00 0.00 0.00 0.00 0.00 0.00 0.00 0.00 0.00 0.00 0.00 0.00 0.00 0.00 0.00 0.00 0.00 0.00 0.00 0.00 0.00 0.00 0.00 0.00 0.00 0.00 0.00
0.00 0.00 0.00 0.00 0.00 0.00 0.00 0.00 0.00 0.00 0.00 0.00 0.00 0.00 0.00 0.00 0.00 0.00 0.00 0.00 0.00 0.00 0.00 0.00 0.00 0.00 0.00 0.00 0.00 0.00 0.00 0.00 0.00 0.00 0.00 0.00 0.00 0.00 0.00 0.00 0.00 0.00 0.00
0.00 0.00 0.00 0.00 0.00 0.00 0.00 0.00 0.00 0.00 0.00 0.00 0.00 0.00 0.00 0.00 0.00 0.00 0.00 0.00 0.00 0.00 0.00 0.00 0.00 0.00 0.00 0.00 0.00 0.00 0.00 0.00 0.00 0.00 0.00 0.00 0.00 0.00 0.00 0.00 0.00 0.00 0.00
0.00 0.00 0.00 0.00 0.00 0.00 0.00 0.00 0.00 0.00 0.00 0.00 0.00 0.00 0.00 0.00 0.00 0.00 0.00 0.00 0.00 0.00 0.00 0.00 0.00 0.00 0.00 0.00 0.00 0.00 0.00 0.00 0.00 0.00 0.00 0.00 0.00 0.00 0.00 0.00 0.00 0.00 0.00
0.00 0.00 0.00 0.00 0.00 0.00 0.00 0.00 0.00 0.00 0.00 0.00 0.00 0.00 0.00 0.00 0.00 0.00 0.00 0.00 0.00 0.00 0.00 0.00 0.00 0.00 0.00 0.00 0.00 0.00 0.00 0.00 0.00 0.00 0.00 0.00 0.00 0.00 0.00 0.00 0.00 0.00 0.00
0.00 0.00 0.00 0.00 0.00 0.00 0.00 0.00 0.00 0.00 0.00 0.00 0.00 0.00 0.00 0.00 0.00 0.00 0.00 0.00 0.00 0.00 0.00 0.00 0.00 0.00 0.00 0.00 0.00 0.00 0.00 0.00 0.00 0.00 0.00 0.00 0.00 0.00 0.00 0.00 0.00 0.00 0.00
0.00 0.00 0.00 0.00 0.00 0.00 0.00 0.00 0.00 0.00 0.00 0.00 0.00 0.00 0.00 0.00 0.00 0.00 0.00 0.00 0.00 0.00 0.00 0.00 0.00 0.00 0.00 0.00 0.00 0.00 0.00 0.00 0.00 0.00 0.00 0.00 0.00 0.00 0.00 0.00 0.00 0.00 0.00
0.00 0.00 0.00 0.00 0.00 0.00 0.00 0.00 0.00 0.00 0.00 0.00 0.00 0.00 0.00 0.00 0.00 0.00 0.00 0.00 0.00 0.00 0.00 0.00 0.00 0.00 0.00 0.00 0.00 0.00 0.00 0.00 0.00 0.00 0.00 0.00 0.00 0.00 0.00 0.00 0.00 0.00 0.00
0.00 0.00 0.00 0.00 0.00 0.00 0.00 0.00 0.00 0.00 0.00 0.00 0.00 0.00 0.00 0.00 0.00 0.00 0.00 0.00 0.00 0.00 0.00 0.00 0.00 0.00 0.00 0.00 0.00 0.00 0.00 0.00 0.00 0.00 0.00 0.00 0.00 0.00 0.00 0.00 0.00 0.00 0.00
0.00 0.00 0.00 0.00 0.00 0.00 0.00 0.00 0.00 0.00 0.00 0.00 0.00 0.00 0.00 0.00 0.00 0.00 0.00 0.00 0.00 0.00 0.00 0.00 0.00 0.00 0.00 0.00 0.00 0.00 0.00 0.00 0.00 0.00 0.00 0.00 0.00 0.00 0.00 0.00 0.00 0.00 0.00
0.00 0.00 0.00 0.00 0.00 0.00 0.00 0.00 0.00 0.00 0.00 0.00 0.00 0.00 0.00 0.00 0.00 0.00 0.00 0.00 0.00 0.00 0.00 0.00 0.00 0.00 0.00 0.00 0.00 0.00 0.00 0.00 0.00 0.00 0.00 0.00 0.00 0.00 0.00 0.00 0.00 0.00 0.00
0.00 0.00 0.00 0.00 0.00 0.00 0.00 0.00 0.00 0.00 0.00 0.00 0.00 0.00 0.00 0.00 0.00 0.00 0.00 0.00 0.00 0.00 0.00 0.00 0.00 0.00 0.00 0.00 0.00 0.00 0.00 0.00 0.00 0.00 0.00 0.00 0.00 0.00 0.00 0.00 0.00 0.00 0.00
0.00 0.00 0.00 0.00 0.00 0.00 0.00 0.00 0.00 0.00 0.00 0.00 0.00 0.00 0.00 0.00 0.00 0.00 0.00 0.00 0.00 0.00 0.00 0.00 0.00 0.00 0.00 0.00 0.00 0.00 0.00 0.00 0.00 0.00 0.00 0.00 0.00 0.00 0.00 0.00 0.00 0.00 0.00
MSLP
1002.93 1002.91 1002.60 1002.39 1002.59 1002.60 1002.73 1003.15 1003.19 1002.94 1002.45 1002.59 1003.06 1004.00 1004.83 1005.70 1006.51 1007.22 1007.90 1008.70 1009.40 1009.91 1010.32 1010.80 1011.18 1011.68 1012.21 1012.78 1013.33 1013.95 1014.43 1014.87 1015.43 1016.12 1016.56 1017.25 1017.91 1018.66 1019.45 1019.63 1020.02 1020.92 1022.14
1003.00 1003.14 1003.19 1003.34 1003.42 1003.06 1003.32 1003.95 1003.86 1002.92 1002.64 1001.13 1001.22 1002.15 1003.32 1004.31 1005.17 1006.04 1006.73 1007.50 1008.16 1008.75 1009.34 1009.93 1010.33 1010.97 1011.32 1011.81 1012.41 1012.86 1013.43 1013.66 1014.32 1015.45 1016.07 1016.86 1017.10 1017.87 1018.62 1019.26 1020.31 1021.03 1022.07
1003.42 1003.14 1003.20 1003.15 1003.27 1003.55 1003.99 1003.71 1002.94 1002.97 1002.67 1002.42 1000.45 1000.94 1001.23 1002.22 1003.57 1004.58 1005.27 1005.97 1006.56 1007.20 1007.86 1008.48 1009.05 1009.75 1010.35 1010.94 1011.47 1011.95 1012.47 1012.97 1013.50 1014.48 1015.59 1016.23 1016.73 1017.40 1018.15 1019.52 1020.37 1020.80 1021.16
1004.25 1003.88 1004.03 1004.12 1003.96 1003.79 1003.54 1003.26 1003.77 1004.51 1004.59 1004.39 1003.37 1003.09 1002.06 1000.94 1001.90 1003.18 1003.48 1003.62 1004.20 1004.99 1005.93 1006.79 1007.55 1008.12 1008.75 1009.59 1010.24 1010.70 1011.46 1012.23 1012.84 1013.53 1014.67 1015.57 1016.40 1017.45 1018.06 1018.64 1019.71 1020.03 1020.92
1004.61 1003.99 1004.17 1003.97 1004.10 1004.20 1004.03 1003.80 1003.75 1004.05 1004.18 1004.14 1004.02 1003.74 1003.31 1002.68 1002.45 1002.55 1002.69 1002.97 1003.18 1004.16 1003.95 1005.00 1005.65 1006.39 1007.21 1007.94 1008.75 1009.26 1010.21 1010.96 1011.91 1012.78 1014.02 1014.92 1015.90 1016.88 1016.92 1017.49 1018.30 1019.04 1020.74
1004.79 1004.19 1003.90 1003.94 1004.02 1004.01 1004.08 1004.07 1003.90 1004.18 1004.29 1004.25 1004.43 1004.41 1004.05 1003.48 1002.96 1002.37 1002.80 1002.94 999.98 1001.88 1002.93 1004.13 1004.59 1004.99 1005.81 1006.80 1007.24 1007.72 1008.31 1009.21 1010.14 1011.50 1012.72 1013.49 1014.21 1014.95 1016.07 1016.75 1017.87 1019.35 1020.62
1004.47 1003.89 1004.05 1003.88 1003.85 1003.72 1003.52 1003.77 1003.84 1003.93 1004.21 1004.34 1004.33 1004.46 1004.12 1003.88 1003.41 1002.63 1002.42 1001.76 1002.42 1002.16 1002.17 1003.50 1004.33 1004.00 1004.93 1004.85 1006.29 1006.99 1007.47 1008.03 1008.42 1009.38 1010.75 1012.01 1013.39 1013.85 1014.84 1016.16 1016.95 1017.85 1018.58
1004.05 1004.07 1003.89 1003.98 1003.89 1003.52 1003.14 1003.45 1003.55 1003.58 1003.74 1004.04 1004.08 1004.17 1004.47 1004.05 1003.62 1003.09 1002.67 1002.56 1001.63 1001.73 1002.37 1002.21 1002.77 1003.97 1003.70 1004.89 1005.80 1005.98 1007.00 1008.23 1008.95 1009.63 1009.44 1010.74 1011.70 1013.02 1013.59 1014.09 1015.55 1017.89 1019.36
1003.78 1003.70 1003.30 1003.05 1003.40 1003.23 1003.50 1003.36 1003.41 1003.85 1004.10 1003.79 1004.07 1004.10 1004.39 1004.11 1003.65 1003.20 1003.18 1002.57 1002.14 1002.22 1002.01 1002.14 1003.41 1003.05 1003.01 1004.26 1005.21 1005.54 1006.82 1007.38 1008.52 1008.75 1009.18 1010.27 1011.37 1012.29 1013.32 1015.08 1016.44 1017.60 1019.33
1002.90 1002.53 1002.43 1002.51 1002.56 1002.69 1002.89 1002.99 1003.13 1003.98 1003.78 1003.89 1004.15 1004.39 1004.37 1003.71 1003.02 1003.02 1003.04 1002.72 1002.46 1002.48 1002.42 1002.22 1002.39 1002.19 1003.04 1003.85 1004.38 1005.25 1006.71 1007.47 1007.98 1008.84 1009.94 1010.75 1011.37 1012.18 1012.98 1013.43 1015.07 1016.36 1017.90
1001.87 1001.60 1001.59 1001.39 1001.39 1001.93 1002.41 1002.95 1002.62 1003.33 1004.04 1004.16 1004.14 1004.39 1004.75 1004.01 1003.06 1002.98 1003.33 1003.00 1002.66 1002.32 1002.55 1002.64 1002.56 1002.70 1003.12 1003.31 1003.67 1004.63 1005.73 1006.88 1007.87 1008.97 1009.85 1010.68 1011.49 1012.35 1013.11 1013.49 1014.28 1014.88 1016.38
1002.16 1001.64 1000.98 1000.53 1000.80 1001.12 1001.54 1001.99 1002.58 1002.86 1003.79 1003.85 1004.19 1003.94 1003.97 1003.87 1002.73 1002.31 1002.42 1002.11 1002.40 1002.44 1002.81 1002.76 1002.78 1003.02 1003.56 1003.94 1004.24 1004.62 1005.63 1006.46 1007.88 1008.89 1010.07 1010.91 1011.53 1012.48 1013.37 1013.87 1014.47 1015.29 1015.70
1002.28 1001.87 1001.65 1001.10 1000.55 1000.82 1001.44 1001.73 1002.65 1002.51 1002.94 1003.43 1003.67 1003.52 1003.53 1003.23 1003.05 1002.31 1001.98 1002.43 1002.32 1002.35 1002.87 1003.19 1003.43 1003.71 1004.17 1004.80 1004.92 1005.32 1005.93 1007.16 1007.96 1009.05 1009.49 1010.78 1011.77 1012.31 1013.43 1014.43 1015.38 1016.02 1016.54
1002.31 1001.45 1001.17 1001.02 1001.15 1001.07 1000.69 1000.99 1001.70 1001.93 1002.19 1002.47 1002.90 1002.82 1002.67 1003.01 1002.96 1002.80 1002.57 1002.46 1002.53 1003.07 1003.48 1003.97 1004.03 1004.29 1004.70 1005.40 1005.94 1006.30 1006.90 1007.61 1008.19 1009.15 1009.81 1010.68 1011.75 1012.75 1013.75 1014.47 1015.95 1016.22 1017.02
1001.89 1001.06 1000.66 1000.44 1000.42 1000.54 1000.82 1000.34 1000.47 1000.63 1000.81 1001.40 1001.78 1001.93 1002.03 1002.34 1002.61 1002.66 1002.65 1002.32 1002.43 1003.10 1003.45 1003.89 1004.54 1005.24 1005.71 1005.93 1006.71 1007.34 1007.69 1008.48 1008.84 1009.35 1010.25 1011.15 1011.91 1012.77 1013.82 1014.76 1015.49 1016.22 1016.98
1001.11 1000.59 1000.10 999.70 999.18 999.30 999.65 1000.02 999.83 999.95 999.90 1000.30 1000.71 1001.14 1001.58 1001.61 1002.08 1002.18 1002.59 1002.39 1002.54 1002.67 1003.71 1003.74 1004.67 1005.41 1006.28 1006.47 1007.06 1007.90 1008.22 1008.63 1009.35 1009.92 1010.57 1011.26 1012.06 1013.10 1013.58 1014.36 1014.97 1016.16 1017.09
999.94 999.35 998.87 998.69 998.41 998.28 998.39 998.86 999.38 999.56 999.55 1000.00 1000.61 1000.86 1000.91 1001.31 1001.67 1001.75 1002.34 1002.75 1002.76 1002.72 1003.35 1004.66 1005.09 1005.99 1006.48 1006.52 1007.28 1008.05 1008.57 1009.40 1010.12 1010.49 1010.81 1011.45 1011.68 1012.58 1013.51 1014.39 1014.26 1015.69 1017.12
998.32 997.63 997.23 996.91 996.89 996.80 997.16 997.73 998.47 998.67 999.63 1000.08 1000.66 1000.62 1000.86 1001.26 1001.36 1001.73 1002.23 1002.84 1003.37 1003.71 1003.95 1004.62 1005.67 1006.11 1006.61 1006.88 1007.60 1008.12 1009.03 1009.83 1010.22 1010.68 1011.47 1012.02 1012.35 1012.65 1013.25 1013.62 1014.39 1015.50 1016.91
996.59 995.53 994.90 994.96 995.47 995.56 996.17 996.86 997.54 998.18 998.96 999.93 1000.55 1001.03 1000.98 1001.17 1001.48 1002.12 1002.35 1002.83 1003.41 1004.16 1004.45 1005.02 1005.84 1006.40 1006.54 1007.07 1007.83 1008.28 1008.68 1009.06 1009.84 1010.82 1011.20 1012.24 1013.06 1012.93 1012.68 1013.49 1014.54 1015.61 1016.40
995.51 994.18 993.34 993.79 994.37 994.84 995.56 996.34 997.08 997.81 998.46 999.55 1000.17 1000.60 1001.06 1001.15 1001.71 1002.16 1002.59 1003.26 1003.97 1004.76 1005.15 1005.72 1006.28 1006.78 1006.98 1007.53 1008.01 1008.45 1008.71 1009.34 1009.93 1010.30 1011.54 1012.66 1012.68 1012.20 1012.63 1013.55 1014.53 1015.34 1015.98
995.69 994.80 994.24 994.13 994.49 994.91 995.47 996.17 996.86 997.45 998.21 999.06 999.92 1000.44 1000.55 1000.72 1001.56 1002.39 1003.04 1004.21 1004.72 1005.00 1005.71 1006.08 1006.39 1006.77 1007.40 1007.91 1007.90 1008.64 1009.27 1009.37 1009.75 1010.85 1011.98 1012.27 1012.25 1012.43 1012.92 1013.70 1014.48 1015.13 1015.71
996.32 995.84 995.46 995.33 995.42 995.65 996.08 996.55 997.11 997.72 998.50 999.33 1000.02 1000.42 1000.63 1001.17 1002.08 1003.06 1003.94 1004.55 1005.01 1005.40 1005.92 1006.12 1006.44 1006.94 1007.44 1008.21 1008.69 1008.86 1008.79 1009.49 1010.44 1011.22 1011.76 1012.09 1012.36 1012.78 1013.29 1013.97 1014.58 1015.11 1015.61
997.26 996.91 996.64 996.52 996.49 996.55 996.89 997.32 997.79 998.21 998.92 999.58 1000.09 1000.64 1001.28 1002.04 1002.87 1003.66 1004.40 1005.02 1005.51 1005.75 1005.88 1006.37 1007.18 1007.94 1008.40 1008.41 1008.23 1008.48 1009.06 1009.84 1010.45 1010.98 1011.42 1011.92 1012.37 1012.88 1013.42 1013.99 1014.47 1014.98 1015.42
998.42 998.03 997.75 997.57 997.52 997.60 997.83 998.15 998.55 998.98 999.57 1000.13 1000.72 1001.40 1002.17 1002.99 1003.81 1004.54 1005.02 1005.47 1005.94 1006.53 1007.06 1007.32 1007.74 1008.09 1008.16 1008.20 1008.46 1009.05 1009.55 1010.06 1010.45 1010.91 1011.42 1011.96 1012.54 1013.09 1013.55 1014.06 1014.54 1014.98 1015.38
999.58 999.22 998.94 998.87 998.90 998.98 999.18 999.50 999.81 1000.22 1000.67 1001.17 1001.78 1002.50 1003.29 1003.97 1004.52 1005.13 1005.62 1006.10 1006.67 1007.03 1007.33 1007.49 1007.69 1007.81 1008.12 1008.68 1009.16 1009.68 1009.99 1010.26 1010.61 1011.03 1011.53 1012.07 1012.50 1012.94 1013.53 1014.00 1014.38 1014.90 1015.46
1000.58 1000.31 1000.14 1000.12 1000.12 1000.13 1000.23 1000.48 1000.83 1001.23 1001.70 1002.26 1002.88 1003.52 1004.10 1004.71 1005.26 1005.75 1006.20 1006.54 1006.88 1007.18 1007.43 1007.53 1007.74 1007.97 1008.47 1009.10 1009.47 1009.96 1010.31 1010.53 1010.81 1011.07 1011.53 1012.16 1012.73 1013.16 1013.48 1013.95 1014.40 1015.10 1015.50
Thickness
5626 5630 5636 5641 5643 5648 5653 5654 5660 5667 5674 5673 5674 5669 5665 5660 5659 5657 5655 5652 5650 5650 5650 5649 5648 5648 5647 5644 5641 5636 5636 5637 5635 5630 5631 5624 5617 5609 5603 5598 5596 5591 5580
5610 5613 5616 5619 5620 5629 5631 5632 5637 5655 5647 5654 5674 5670 5665 5660 5656 5652 5651 5649 5647 5645 5645 5642 5642 5640 5639 5639 5637 5635 5631 5633 5630 5620 5620 5616 5613 5606 5599 5592 5586 5576 5567
5592 5598 5600 5604 5607 5609 5609 5618 5629 5634 5640 5650 5643 5653 5665 5662 5656 5652 5650 5648 5646 5644 5641 5640 5639 5636 5633 5631 5631 5630 5628 5626 5624 5614 5604 5605 5602 5597 5591 5580 5572 5568 5560
5569 5577 5578 5580 5586 5591 5598 5605 5605 5603 5607 5614 5629 5638 5650 5646 5650 5651 5653 5654 5650 5646 5643 5640 5637 5635 5634 5630 5627 5626 5623 5617 5615 5612 5600 5595 5592 5581 5577 5572 5562 5558 5549
5550 5561 5563 5568 5571 5575 5580 5585 5589 5589 5593 5599 5606 5614 5624 5635 5642 5647 5645 5630 5637 5636 5643 5640 5638 5635 5631 5628 5625 5624 5619 5614 5608 5602 5591 5586 5580 5572 5573 5566 5558 5551 5534
5531 5542 5550 5553 5559 5562 5565 5569 5574 5574 5576 5580 5584 5591 5601 5612 5623 5633 5629 5625 5629 5639 5638 5626 5623 5627 5627 5618 5618 5618 5619 5614 5608 5598 5588 5587 5582 5576 5565 5558 5548 5534 5523
5518 5527 5532 5539 5543 5549 5555 5556 5557 5560 5563 5565 5569 5572 5581 5588 5596 5611 5620 5627 5622 5631 5635 5623 5614 5623 5617 5617 5606 5606 5607 5605 5602 5598 5590 5584 5571 5568 5560 5548 5541 5533 5528
5506 5510 5516 5519 5524 5533 5542 5540 5544 5549 5552 5553 5556 5560 5562 5570 5576 5585 5593 5603 5620 5617 5617 5615 5610 5609 5613 5606 5596 5597 5596 5585 5583 5583 5587 5579 5572 5560 5554 5549 5535 5516 5503
5494 5498 5503 5509 5511 5516 5518 5523 5527 5527 5531 5538 5538 5544 5548 5554 5561 5569 5573 5585 5597 5597 5598 5592 5594 5597 5598 5595 5582 5587 5580 5576 5574 5575 5572 5567 5559 5550 5539 5523 5512 5504 5489
5481 5489 5495 5498 5502 5505 5506 5509 5512 5508 5514 5514 5517 5521 5527 5539 5548 5554 5557 5565 5573 5573 5576 5582 5582 5592 5585 5582 5585 5582 5572 5568 5565 5558 5551 5546 5543 5535 5527 5521 5509 5500 5486
5469 5476 5482 5487 5491 5491 5490 5486 5496 5495 5492 5495 5500 5501 5503 5515 5527 5534 5534 5543 5551 5555 5558 5559 5566 5569 5569 5573 5577 5575 5569 5556 5549 5541 5535 5529 5524 5516 5510 5506 5501 5495 5481
5448 5458 5467 5475 5475 5478 5476 5473 5474 5481 5477 5481 5482 5488 5493 5497 5511 5520 5525 5531 5535 5539 5540 5546 5552 5555 5553 5554 5556 5556 5551 5545 5535 5528 5519 5512 5507 5500 5490 5486 5480 5471 5469
5424 5431 5435 5445 5454 5455 5455 5457 5454 5463 5467 5468 5470 5476 5479 5485 5492 5506 5511 5510 5518 5523 5524 5527 5532 5535 5534 5530 5534 5534 5532 5524 5519 5510 5508 5495 5487 5482 5471 5463 5455 5450 5444
5398 5412 5417 5420 5424 5431 5439 5442 5441 5446 5452 5456 5459 5465 5470 5470 5476 5485 5493 5497 5501 5504 5506 5507 5511 5513 5513 5509 5507 5506 5505 5501 5498 5492 5487 5477 5468 5459 5451 5445 5432 5429 5422
5378 5391 5399 5404 5408 5412 5416 5427 5429 5435 5444 5446 5448 5454 5459 5461 5463 5468 5476 5486 5490 5488 5491 5492 5491 5489 5488 5490 5485 5482 5480 5475 5473 5469 5462 5455 5449 5443 5433 5425 5419 5411 5408
5360 5368 5376 5385 5396 5401 5404 5406 5417 5419 5429 5433 5436 5440 5442 5449 5451 5457 5459 5468 5473 5478 5472 5477 5472 5469 5466 5467 5464 5459 5458 5457 5452 5448 5443 5439 5432 5424 5420 5413 5408 5398 5391
5349 5356 5361 5364 5372 5383 5389 5395 5398 5403 5412 5418 5419 5424 5432 5437 5441 5447 5448 5449 5454 5461 5461 5454 5454 5449 5447 5450 5445 5441 5439 5434 5429 5427 5426 5420 5417 5409 5403 5395 5402 5392 5381
5349 5353 5356 5362 5366 5372 5376 5379 5382 5392 5395 5400 5403 5413 5420 5424 5431 5436 5437 5438 5438 5438 5440 5440 5436 5435 5433 5433 5430 5428 5421 5415 5414 5412 5407 5402 5401 5399 5395 5397 5392 5385 5375
5352 5358 5361 5362 5361 5366 5366 5366 5368 5377 5387 5388 5393 5399 5409 5415 5420 5422 5426 5428 5427 5425 5425 5424 5423 5421 5423 5420 5415 5413 5412 5411 5406 5400 5401 5394 5387 5389 5393 5390 5384 5380 5376
5353 5356 5356 5356 5359 5360 5359 5360 5363 5368 5376 5381 5389 5396 5400 5408 5410 5412 5415 5414 5414 5411 5411 5410 5408 5407 5408 5407 5405 5403 5404 5400 5397 5398 5391 5386 5388 5393 5391 5386 5381 5376 5373
5349 5348 5345 5346 5349 5352 5354 5356 5359 5364 5370 5380 5385 5389 5397 5404 5403 5403 5404 5400 5399 5400 5398 5398 5400 5399 5396 5395 5399 5395 5393 5394 5395 5392 5387 5388 5388 5387 5383 5378 5373 5369 5365
5348 5346 5343 5343 5344 5345 5347 5350 5353 5361 5368 5375 5379 5384 5391 5394 5394 5392 5389 5389 5389 5390 5389 5391 5392 5392 5392 5391 5390 5393 5396 5393 5389 5386 5384 5382 5380 5376 5372 5367 5362 5358 5353
5347 5348 5347 5347 5347 5348 5350 5353 5354 5361 5366 5372 5376 5380 5383 5384 5383 5382 5381 5380 5380 5383 5387 5387 5385 5382 5382 5387 5392 5393 5390 5386 5383 5381 5378 5373 5369 5364 5359 5353 5349 5344 5340
5340 5343 5344 5346 5348 5351 5352 5353 5355 5359 5364 5368 5370 5372 5373 5372 5371 5370 5371 5372 5376 5376 5377 5380 5380 5380 5383 5385 5385 5382 5380 5378 5376 5372 5368 5362 5356 5349 5343 5337 5332 5326 5322
5334 5337 5340 5342 5343 5346 5347 5349 5352 5354 5356 5360 5361 5361 5360 5360 5363 5363 5364 5368 5369 5372 5373 5376 5377 5379 5378 5375 5372 5370 5368 5367 5364 5359 5352 5345 5338 5332 5324 5317 5312 5305 5299
5329 5333 5335 5337 5338 5340 5343 5345 5347 5349 5350 5351 5351 5351 5352 5354 5355 5358 5360 5363 5365 5366 5368 5371 5371 5371 5368 5363 5362 5358 5355 5353 5350 5345 5337 5328 5319 5312 5306 5298 5290 5281 5274